Regional Weather Roundup
Issued by NWS

Home | Current Version | Previous Version | Text Only | Print | Product List | Glossary On
Versions: 1 2 3 4 5 6 7 8 9 10 11 12 13 14 15 16 17 18 19 20 21 22 23 24 25 26 27 28 29 30 31 32 33 34 35 36 37 38 39 40 41 42 43 44 45 46 47 48 49 50
703
ASUS44 KLIX 290601
RWRLA
LOUISIANA WEATHER ROUNDUP
NATIONAL WEATHER SERVICE NEW ORLEANS LA
100 AM CDT TUE JUL 29 2014

NOTE: "FAIR" INDICATES FEW OR NO CLOUDS BELOW 12,000 FEET WITH NO
      SIGNIFICANT WEATHER AND/OR OBSTRUCTIONS TO VISIBILITY.
      SKY/WX - SKY CONDITION AND SIGNIFICANT WEATHER.
      TMP - AIR TEMPERATURE.    DP   - DEWPOINT TEMPERATURE.
      RH  - RELATIVE HUMIDITY.  PRES - PRESSURE.
      HX  - HEAT INDEX.         WCI  - WIND CHILL INDEX.

*  THESE STATIONS ARE NOT NWS OR FAA STATIONS AND ARE NOT UNDER
   NWS QUALITY CONTROL.

LAZ040-048-061>063-065-066-069-290700-
SOUTHEAST LOUISIANA

CITY           SKY/WX    TMP DP  RH WIND       PRES   REMARKS
N.O. AUDUBON     N/A     85  79  83 MISG        N/A  HX  97
6HR MIN TEMP:  84; 6HR MAX TEMP:  91;

N.O. INTL ARPT MOCLDY    84  77  79 N6        30.00F
6HR MIN TEMP:  82; 6HR MAX TEMP:  90;

N.O. LAKEFRONT MOCLDY    85  76  74 N16       30.00F
6HR MIN TEMP:  84; 6HR MAX TEMP:  89;

N.O. DOWNTOWN* CLOUDY    84  73  70 N5        30.00F
6HR MIN TEMP:  84; 6HR MAX TEMP:  91;

SLIDELL        PTCLDY    78  74  87 N3        29.99F
6HR MIN TEMP:  78; 6HR MAX TEMP:  89; 6HR PCP:  0.03;

BATON ROUGE    MOCLDY    77  72  84 CALM      30.01F
6HR MIN TEMP:  76; 6HR MAX TEMP:  86;

BOOTHVILLE     PTCLDY    84  80  88 W7        30.00F HX  97
6HR MIN TEMP:  83; 6HR MAX TEMP:  87;

BELLE CHASSE   MOCLDY    81  77  88 CALM      29.99F
6HR MIN TEMP:  81; 6HR MAX TEMP:  89;

BOGALUSA*      FAIR      78  72  82 CALM      30.03S
6HR MIN TEMP:  77; 6HR MAX TEMP:  88;

GALLIANO*      NOT AVBL
NEW ROADS*     FAIR      74  74  98 CALM      30.01F
6HR MIN TEMP:  74; 6HR MAX TEMP:  85;

GONZALES*      FAIR      77  75  93 CALM      30.00F
6HR MIN TEMP:  77; 6HR MAX TEMP:  86;

HAMMOND*       MOCLDY    79  73  83 CALM      30.02F
HOUMA*         MOCLDY    81  71  72 NW5       30.00F
6HR MIN TEMP:  81; 6HR MAX TEMP:  87;

PORT FOURCHON* MOCLDY    84  79  84 W10       30.02F HX  96

$$

LAZ041-044-053-054-290700-
SOUTHWEST LOUISIANA

CITY           SKY/WX    TMP DP  RH WIND       PRES   REMARKS
LAKE CHARLES   CLOUDY    82  78  88 NW5       30.03R
6HR MIN TEMP:  82; 6HR MAX TEMP:  91;

LAFAYETTE      NOT AVBL
PATTERSON      CLOUDY    75  73  94 SW5       30.05S
6HR MIN TEMP:  75; 6HR MAX TEMP:  86;

SALT POINT       N/A     81  74  79 CALM      30.01F
6HR MIN TEMP:  80; 6HR MAX TEMP:  89;

NEW IBERIA     CLOUDY    77  73  87 S3        30.01F
6HR MIN TEMP:  75; 6HR MAX TEMP:  87; 6HR PCP:  0.20;

CHENAULT AIRPK NOT AVBL

$$

LAZ027-028-290700-
CENTRAL LOUISIANA

CITY           SKY/WX    TMP DP  RH WIND       PRES   REMARKS
FORT POLK      CLOUDY    76  72  87 NW7       30.06R
6HR MIN TEMP:  75; 6HR MAX TEMP:  88; 6HR PCP:  0.23;

ALEXANDRIA INT CLOUDY    76  74  93 W3        30.02R
6HR MIN TEMP:  76; 6HR MAX TEMP:  83;

ALEXANDRIA     MOCLDY    77  73  87 CALM      30.03S
6HR MIN TEMP:  76; 6HR MAX TEMP:  79;


$$

LAZ001-002-290700-
NORTHWEST LOUISIANA

CITY           SKY/WX    TMP DP  RH WIND       PRES   REMARKS
SHREVEPORT     CLOUDY    79  68  69 N6        30.06R
6HR MIN TEMP:  78; 6HR MAX TEMP:  88;

BARKSDALE AFB  PTCLDY    76  69  78 CALM      30.06R
6HR MIN TEMP:  76; 6HR MAX TEMP:  86;

DTN SHREVEPORT MOCLDY    76  68  76 CALM      30.07R
6HR MIN TEMP:  76; 6HR MAX TEMP:  87;


$$

LAZ014-016-290700-
NORTHEAST LOUISIANA

CITY           SKY/WX    TMP DP  RH WIND       PRES   REMARKS
MONROE         PTCLDY    76  66  71 E6        30.05S
6HR MIN TEMP:  75; 6HR MAX TEMP:  88;

TALLULAH       CLEAR     73  66  78 N5        30.04F
6HR MIN TEMP:  73; 6HR MAX TEMP:  85;


$$




USA.gov is the U.S. government's official web portal to all federal, state and local government web resources and services.